This demonstration page uses our WeatherBlox Daily Observations layout. Learn more.

Left ArrowRight Arrow

34.74481, -87.66753

Hourly Observations for June 29, 2022

Temp ( °F °C ) Dew Point ( °F °C ) Humidity (%) Winds ( mph kmh ) Pressure ( in mb ) Visibility ( mi km ) Precip ( " mm )
12:53 am 00:53 Mostly Clear 73 22.8 57 13.9 57 57 E 5 7 30.13 1020 10 16 0.00 0.00
1:53 am 01:53 Clear 70 21.1 59 15 68 68 Calm 30.11 1020 10 16 0.00 0.00
2:53 am 02:53 Clear 71 21.7 60 15.6 68 68 NE 5 7 30.11 1020 10 16 0.00 0.00
3:53 am 03:53 Clear 70 21.1 61 16.1 73 73 Calm 30.11 1020 10 16 0.00 0.00
4:53 am 04:53 Clear 69 20.6 62 16.7 78 78 Calm 30.12 1020 10 16 0.00 0.00
5:53 am 05:53 Sunny 69 20.6 62 16.7 78 78 Calm 30.14 1021 10 16 0.00 0.00
6:53 am 06:53 Sunny 72 22.2 64 17.8 76 76 Calm 30.16 1021 10 16 0.00 0.00
7:53 am 07:53 Cloudy 76 24.4 68 20 77 77 ESE 5 7 30.18 1022 10 16 0.00 0.00
8:53 am 08:53 Sunny 80 26.7 69 20.6 69 69 SE 8 13 30.19 1022 10 16 0.00 0.00
9:53 am 09:53 Mostly Sunny 82 27.8 70 21.1 67 67 VRB 3 6 30.19 1022 10 16 0.00 0.00
10:32 am 10:32 Mostly Cloudy 85 29.4 70 21.1 61 61 E 3 6 30.18 1022 10 16 0.00 0.00
10:42 am 10:42 Partly Cloudy 86 30 70 21.1 59 59 VRB 6 9 30.18 1022 10 16 0.00 0.00
10:53 am 10:53 Mostly Sunny 86 30 70 21.1 59 59 undefined N/A 30.19 1022 10 16 0.00 0.00
11:53 am 11:53 Mostly Cloudy 88 31.1 69 20.6 54 54 VRB 3 6 30.18 1022 10 16 0.00 0.00
12:53 pm 12:53 Partly Cloudy 89 31.7 68 20 50 50 E 6 9 30.17 1022 10 16 0.00 0.00
1:53 pm 13:53 Sunny 91 32.8 67 19.4 45 45 VRB 3 6 30.14 1021 10 16 0.00 0.00
2:53 pm 14:53 Mostly Cloudy 93 33.9 67 19.4 42 42 ENE 9 15 30.11 1020 10 16 0.00 0.00
3:53 pm 15:53 Mostly Cloudy 91 32.8 66 18.9 44 44 Calm 30.10 1019 10 16 0.00 0.00
4:53 pm 16:53 Mostly Sunny 94 34.4 67 19.4 41 41 ENE 6 9 30.09 1019 10 16 0.00 0.00
5:53 pm 17:53 Mostly Sunny 92 33.3 67 19.4 44 44 E 7 11 30.09 1019 10 16 0.00 0.00
6:53 pm 18:53 Sunny 92 33.3 67 19.4 44 44 ENE 6 9 30.09 1019 10 16 0.00 0.00
7:53 pm 19:53 Mostly Cloudy 89 31.7 69 20.6 52 52 SSE 3 6 30.10 1019 10 16 0.00 0.00
8:53 pm 20:53 Mostly Clear 85 29.4 70 21.1 61 61 S 10 17 30.13 1020 10 16 0.00 0.00
9:53 pm 21:53 Mostly Clear 80 26.7 69 20.6 69 69 E 7 11 30.15 1021 10 16 0.00 0.00
10:53 pm 22:53 Clear 79 26.1 69 20.6 72 72 S 5 7 30.14 1021 10 16 0.00 0.00
11:53 pm 23:53 Partly Cloudy 76 24.4 69 20.6 79 79 SE 5 7 30.15 1021 10 16 0.00 0.00

Powered by AerisWeather